owner,sensor,date,latitude,longitude,vertical_datum,wind_speed,wind_to_direction,wind_speed_of_gust,qcFlag 
TABS,ioos:station:wmo:42043:1,2007-02-01T00:00:00Z,28.9818,-94.9186,4.0,9.720416658,53.66026773,12.23,'11111222,11111222,11111222' 
TABS,ioos:station:wmo:42043:1,2007-02-01T00:30:00Z,28.9818,-94.9186,4.0,10.26100385,61.41146821,12.99,'11111222,11111222,11111222' 
TABS,ioos:station:wmo:42043:1,2007-02-01T01:00:00Z,28.9818,-94.9186,4.0,9.152906642,59.17545687,10.95,'11111222,11111222,11111222' 
TABS,ioos:station:wmo:42043:1,2007-02-01T01:30:00Z,28.9818,-94.9186,4.0,8.805254113,46.15004468,11.38,'11111222,11111222,11111222' 
TABS,ioos:station:wmo:42043:1,2007-02-01T02:00:00Z,28.9818,-94.9186,4.0,9.628359154,41.42073355,12.61,'11111222,11111222,11111222' 
TABS,ioos:station:wmo:42043:1,2007-02-01T02:30:00Z,28.9818,-94.9186,4.0,7.967992219,40.26561154,12.18,'11111222,11111222,11111222' 
TABS,ioos:station:wmo:42043:1,2007-02-01T03:00:00Z,28.9818,-94.9186,4.0,5.503426206,41.68510624,9.99,'11111222,11111222,11111222' 
TABS,ioos:station:wmo:42043:1,2007-02-01T03:30:00Z,28.9818,-94.9186,4.0,6.208977372,44.21664907,10.62,'11111222,11111222,11111222' 
TABS,ioos:station:wmo:42043:1,2007-02-01T04:00:00Z,28.9818,-94.9186,4.0,4.364916952,46.7634985,8.79,'11111222,11111222,11111222' 
TABS,ioos:station:wmo:42043:1,2007-02-01T04:30:00Z,28.9818,-94.9186,4.0,5.776028047,37.0481533,9.4,'11111222,11111222,11111222' 
TABS,ioos:station:wmo:42043:1,2007-02-01T05:00:00Z,28.9818,-94.9186,4.0,5.069960552,44.91977412,8.6,'11111222,11111222,11111222' 
TABS,ioos:station:wmo:42043:1,2007-02-01T05:30:00Z,28.9818,-94.9186,4.0,4.188090257,48.77514131,8.15,'11111222,11111222,11111222' 
TABS,ioos:station:wmo:42043:1,2007-02-01T06:00:00Z,28.9818,-94.9186,4.0,0.349284984,23.62911202,4.7,'11111222,11111222,11111222' 
TABS,ioos:station:wmo:42043:1,2007-02-01T06:30:00Z,28.9818,-94.9186,4.0,0.95131488,39.88238143,6.56,'11111222,11111222,11111222' 
TABS,ioos:station:wmo:42043:1,2007-02-01T07:00:00Z,28.9818,-94.9186,4.0,7.24069748,42.4809717,8.89,'11111222,11111222,11111222' 
TABS,ioos:station:wmo:42043:1,2007-02-01T07:30:00Z,28.9818,-94.9186,4.0,7.092221091,37.32201065,9.1,'11111222,11111222,11111222' 
TABS,ioos:station:wmo:42043:1,2007-02-01T08:00:00Z,28.9818,-94.9186,4.0,7.305812754,38.72074684,9.26,'11111222,11111222,11111222' 
TABS,ioos:station:wmo:42043:1,2007-02-01T08:30:00Z,28.9818,-94.9186,4.0,7.770624171,39.56925123,9.29,'11111222,11111222,11111222' 
TABS,ioos:station:wmo:42043:1,2007-02-01T09:00:00Z,28.9818,-94.9186,4.0,7.670104302,41.77591202,9.51,'11111222,11111222,11111222' 
TABS,ioos:station:wmo:42043:1,2007-02-01T09:30:00Z,28.9818,-94.9186,4.0,7.792162729,41.56606198,9.33,'11111222,11111222,11111222' 
TABS,ioos:station:wmo:42043:1,2007-02-01T10:00:00Z,28.9818,-94.9186,4.0,7.708832596,42.31837626,9.31,'11111222,11111222,11111222' 
TABS,ioos:station:wmo:42043:1,2007-02-01T10:30:00Z,28.9818,-94.9186,4.0,7.464154339,36.50114531,9.16,'11111222,11111222,11111222' 
TABS,ioos:station:wmo:42043:1,2007-02-01T11:00:00Z,28.9818,-94.9186,4.0,7.420148246,40.40835734,9.15,'11111222,11111222,11111222' 
TABS,ioos:station:wmo:42043:1,2007-02-01T11:30:00Z,28.9818,-94.9186,4.0,7.827036476,35.27358615,9.67,'11111222,11111222,11111222' 
TABS,ioos:station:wmo:42043:1,2007-02-01T12:00:00Z,28.9818,-94.9186,4.0,7.7463798,51.70950543,9.44,'11111222,11111222,11111222' 
TABS,ioos:station:wmo:42043:1,2007-02-01T12:30:00Z,28.9818,-94.9186,4.0,6.603029608,54.86546818,7.98,'11111222,11111222,11111222' 
TABS,ioos:station:wmo:42043:1,2007-02-01T13:00:00Z,28.9818,-94.9186,4.0,6.256140983,53.51441934,7.59,'11111222,11111222,11111222' 
TABS,ioos:station:wmo:42043:1,2007-02-01T13:30:00Z,28.9818,-94.9186,4.0,6.241313964,42.79210169,7.93,'11111222,11111222,11111222' 
TABS,ioos:station:wmo:42043:1,2007-02-01T14:00:00Z,28.9818,-94.9186,4.0,5.724403899,36.18897193,7.09,'11111222,11111222,11111222' 
TABS,ioos:station:wmo:42043:1,2007-02-01T14:30:00Z,28.9818,-94.9186,4.0,4.81300322,47.52579532,5.71,'11111222,11111222,11111222' 
TABS,ioos:station:wmo:42043:1,2007-02-01T15:00:00Z,28.9818,-94.9186,4.0,4.47823626,36.28105541,5.43,'11111222,11111222,11111222' 
TABS,ioos:station:wmo:42043:1,2007-02-01T15:30:00Z,28.9818,-94.9186,4.0,3.918073506,18.29596515,5.11,'11111222,11111222,11111222' 
TABS,ioos:station:wmo:42043:1,2007-02-01T16:00:00Z,28.9818,-94.9186,4.0,4.979889557,8.894637273,6.14,'11111222,11111222,11111222' 
TABS,ioos:station:wmo:42043:1,2007-02-01T16:30:00Z,28.9818,-94.9186,4.0,5.52634599,15.31852427,6.79,'11111222,11111222,11111222' 
TABS,ioos:station:wmo:42043:1,2007-02-01T17:00:00Z,28.9818,-94.9186,4.0,6.311339002,1.180039994,8.18,'11111222,11111222,11111222' 
TABS,ioos:station:wmo:42043:1,2007-02-01T17:30:00Z,28.9818,-94.9186,4.0,6.39560005,11.81921103,8.2,'11111222,11111222,11111222' 
TABS,ioos:station:wmo:42043:1,2007-02-01T18:00:00Z,28.9818,-94.9186,4.0,6.343311438,25.19123928,7.82,'11111222,11111222,11111222' 
TABS,ioos:station:wmo:42043:1,2007-02-01T18:30:00Z,28.9818,-94.9186,4.0,6.003540622,38.16764739,7.45,'11111222,11111222,11111222' 
TABS,ioos:station:wmo:42043:1,2007-02-01T19:00:00Z,28.9818,-94.9186,4.0,6.088292043,45.3324079,7.51,'11111222,11111222,11111222' 
TABS,ioos:station:wmo:42043:1,2007-02-01T19:30:00Z,28.9818,-94.9186,4.0,5.562490449,41.28251606,6.83,'11111222,11111222,11111222' 
TABS,ioos:station:wmo:42043:1,2007-02-01T20:00:00Z,28.9818,-94.9186,4.0,6.043475821,47.27957152,7.39,'11111222,11111222,11111222' 
TABS,ioos:station:wmo:42043:1,2007-02-01T20:30:00Z,28.9818,-94.9186,4.0,5.846041396,53.34538487,7.43,'11111222,11111222,11111222' 
TABS,ioos:station:wmo:42043:1,2007-02-01T21:00:00Z,28.9818,-94.9186,4.0,5.580573447,58.93024853,6.96,'11111222,11111222,11111222' 
TABS,ioos:station:wmo:42043:1,2007-02-01T21:30:00Z,28.9818,-94.9186,4.0,6.074742793,45.86672335,7.27,'11111222,11111222,11111222' 
TABS,ioos:station:wmo:42043:1,2007-02-01T22:00:00Z,28.9818,-94.9186,4.0,5.432421191,24.5833472,6.95,'11111222,11111222,11111222' 
TABS,ioos:station:wmo:42043:1,2007-02-01T22:30:00Z,28.9818,-94.9186,4.0,4.870287466,33.52663623,5.9,'11111222,11111222,11111222' 
TABS,ioos:station:wmo:42043:1,2007-02-01T23:00:00Z,28.9818,-94.9186,4.0,3.428833621,65.90141493,4.6,'11111222,11111222,11111222' 
TABS,ioos:station:wmo:42043:1,2007-02-01T23:30:00Z,28.9818,-94.9186,4.0,3.435127363,77.21752192,4.37,'11111222,11111222,11111222' 
TABS,ioos:station:wmo:42043:1,2007-02-02T00:00:00Z,28.9818,-94.9186,4.0,3.332041416,101.0742662,4.53,'11111222,11111222,11111222' 
TABS,ioos:station:wmo:42043:1,2007-02-02T00:30:00Z,28.9818,-94.9186,4.0,3.151967639,100.419054,4.48,'11111222,11111222,11111222' 
TABS,ioos:station:wmo:42043:1,2007-02-02T01:00:00Z,28.9818,-94.9186,4.0,2.146928038,67.25659493,3.26,'11111222,11111222,11111222' 
TABS,ioos:station:wmo:42043:1,2007-02-02T01:30:00Z,28.9818,-94.9186,4.0,2.955029611,35.35706808,3.84,'11111222,11111222,11111222' 
TABS,ioos:station:wmo:42043:1,2007-02-02T02:00:00Z,28.9818,-94.9186,4.0,4.469955257,12.13928055,5.67,'11111222,11111222,11111222' 
TABS,ioos:station:wmo:42043:1,2007-02-02T02:30:00Z,28.9818,-94.9186,4.0,3.781071277,1.363713883,5.15,'11111222,11111222,11111222' 
TABS,ioos:station:wmo:42043:1,2007-02-02T03:00:00Z,28.9818,-94.9186,4.0,2.605091169,353.8296289,4.57,'11111222,11111222,11111222' 
TABS,ioos:station:wmo:42043:1,2007-02-02T03:30:00Z,28.9818,-94.9186,4.0,5.450596298,346.9579295,7.04,'11111222,11111222,11111222' 
TABS,ioos:station:wmo:42043:1,2007-02-02T04:00:00Z,28.9818,-94.9186,4.0,2.833972477,3.033822093,3.9,'11111222,11111222,11111222' 
TABS,ioos:station:wmo:42043:1,2007-02-02T04:30:00Z,28.9818,-94.9186,4.0,2.251421773,15.45575247,2.92,'11111222,11111222,11111222' 
TABS,ioos:station:wmo:42043:1,2007-02-02T05:00:00Z,28.9818,-94.9186,4.0,2.826888749,41.41441843,3.62,'11111222,11111222,11111222' 
TABS,ioos:station:wmo:42043:1,2007-02-02T05:30:00Z,28.9818,-94.9186,4.0,1.160775603,22.80944731,2.16,'11111222,11111222,11111222' 
TABS,ioos:station:wmo:42043:1,2007-02-02T06:00:00Z,28.9818,-94.9186,4.0,1.510761397,353.1570321,2.22,'11111222,11111222,11111222' 
TABS,ioos:station:wmo:42043:1,2007-02-02T06:30:00Z,28.9818,-94.9186,4.0,1.760823671,13.79924267,2.61,'11111222,11111222,11111222' 
TABS,ioos:station:wmo:42043:1,2007-02-02T07:00:00Z,28.9818,-94.9186,4.0,3.445692964,7.001040727,4.4,'11111222,11111222,11111222' 
TABS,ioos:station:wmo:42043:1,2007-02-02T07:30:00Z,28.9818,-94.9186,4.0,3.506023388,23.71332898,4.8,'11111222,11111222,11111222' 
TABS,ioos:station:wmo:42043:1,2007-02-02T08:00:00Z,28.9818,-94.9186,4.0,3.87001292,28.22026127,4.91,'11111222,11111222,11111222' 
TABS,ioos:station:wmo:42043:1,2007-02-02T08:30:00Z,28.9818,-94.9186,4.0,4.052653452,48.60095401,5.51,'11111222,11111222,11111222' 
TABS,ioos:station:wmo:42043:1,2007-02-02T09:00:00Z,28.9818,-94.9186,4.0,3.489197615,56.81057288,5.05,'11111222,11111222,11111222' 
TABS,ioos:station:wmo:42043:1,2007-02-02T09:30:00Z,28.9818,-94.9186,4.0,3.492620792,20.09497374,4.75,'11111222,11111222,11111222' 
TABS,ioos:station:wmo:42043:1,2007-02-02T10:00:00Z,28.9818,-94.9186,4.0,3.042515407,52.07513459,4.59,'11111222,11111222,11111222' 
TABS,ioos:station:wmo:42043:1,2007-02-02T10:30:00Z,28.9818,-94.9186,4.0,3.762791517,4.725484336,5.19,'11111222,11111222,11111222' 
TABS,ioos:station:wmo:42043:1,2007-02-02T11:00:00Z,28.9818,-94.9186,4.0,4.549120794,10.00044992,6.27,'11111222,11111222,11111222' 
TABS,ioos:station:wmo:42043:1,2007-02-02T11:30:00Z,28.9818,-94.9186,4.0,5.977039401,357.21877,8.22,'11111222,11111222,11111222' 
TABS,ioos:station:wmo:42043:1,2007-02-02T12:00:00Z,28.9818,-94.9186,4.0,5.764997832,357.6138511,7.49,'11111222,11111222,11111222' 
TABS,ioos:station:wmo:42043:1,2007-02-02T12:30:00Z,28.9818,-94.9186,4.0,5.527567277,349.7876785,7.11,'11111222,11111222,11111222' 
TABS,ioos:station:wmo:42043:1,2007-02-02T13:00:00Z,28.9818,-94.9186,4.0,5.037072563,344.3356726,6.25,'11111222,11111222,11111222' 
TABS,ioos:station:wmo:42043:1,2007-02-02T13:30:00Z,28.9818,-94.9186,4.0,5.294006045,343.6530409,7.89,'11111222,11111222,11111222' 
TABS,ioos:station:wmo:42043:1,2007-02-02T14:00:00Z,28.9818,-94.9186,4.0,7.608054942,325.7667304,9.53,'11111222,11111222,11111222' 
TABS,ioos:station:wmo:42043:1,2007-02-02T14:30:00Z,28.9818,-94.9186,4.0,6.802095265,325.1182606,8.67,'11111222,11111222,11111222' 
TABS,ioos:station:wmo:42043:1,2007-02-02T15:00:00Z,28.9818,-94.9186,4.0,6.42063081,323.9331355,8.48,'11111222,11111222,11111222' 
TABS,ioos:station:wmo:42043:1,2007-02-02T15:30:00Z,28.9818,-94.9186,4.0,6.96374899,342.1893348,8.43,'11111222,11111222,11111222' 
TABS,ioos:station:wmo:42043:1,2007-02-02T16:00:00Z,28.9818,-94.9186,4.0,6.373201707,356.3113062,8.54,'11111222,11111222,11111222' 
TABS,ioos:station:wmo:42043:1,2007-02-02T16:30:00Z,28.9818,-94.9186,4.0,5.953427584,353.9253112,7.49,'11111222,11111222,11111222' 
TABS,ioos:station:wmo:42043:1,2007-02-02T17:00:00Z,28.9818,-94.9186,4.0,6.040827758,0.948306284,7.55,'11111222,11111222,11111222' 
TABS,ioos:station:wmo:42043:1,2007-02-02T17:30:00Z,28.9818,-94.9186,4.0,5.389508326,3.403698622,6.54,'11111222,11111222,11111222' 
TABS,ioos:station:wmo:42043:1,2007-02-02T18:00:00Z,28.9818,-94.9186,4.0,6.76391159,358.0511332,8.25,'11111222,11111222,11111222' 
TABS,ioos:station:wmo:42043:1,2007-02-02T18:30:00Z,28.9818,-94.9186,4.0,7.434547733,357.9956453,9.15,'11111222,11111222,11111222' 
TABS,ioos:station:wmo:42043:1,2007-02-02T19:00:00Z,28.9818,-94.9186,4.0,6.482977711,356.3738474,8.7,'11111222,11111222,11111222' 
TABS,ioos:station:wmo:42043:1,2007-02-02T19:30:00Z,28.9818,-94.9186,4.0,6.101606346,358.6850383,7.94,'11111222,11111222,11111222' 
TABS,ioos:station:wmo:42043:1,2007-02-02T20:00:00Z,28.9818,-94.9186,4.0,5.885312226,357.5652165,8.07,'11111222,11111222,11111222' 
TABS,ioos:station:wmo:42043:1,2007-02-02T20:30:00Z,28.9818,-94.9186,4.0,6.10686499,6.298522963,9.03,'11111222,11111222,11111222' 
TABS,ioos:station:wmo:42043:1,2007-02-02T21:00:00Z,28.9818,-94.9186,4.0,7.277671331,19.50528457,9.8,'11111222,11111222,11111222' 
TABS,ioos:station:wmo:42043:1,2007-02-02T21:30:00Z,28.9818,-94.9186,4.0,7.206032195,27.70271751,9.06,'11111222,11111222,11111222' 
TABS,ioos:station:wmo:42043:1,2007-02-02T22:00:00Z,28.9818,-94.9186,4.0,6.574435337,32.57785052,8.57,'11111222,11111222,11111222' 
TABS,ioos:station:wmo:42043:1,2007-02-02T22:30:00Z,28.9818,-94.9186,4.0,6.772370338,32.21135775,9.15,'11111222,11111222,11111222' 
TABS,ioos:station:wmo:42043:1,2007-02-02T23:00:00Z,28.9818,-94.9186,4.0,6.838252701,30.20187588,9.4,'11111222,11111222,11111222' 
TABS,ioos:station:wmo:42043:1,2007-02-02T23:30:00Z,28.9818,-94.9186,4.0,7.380277773,30.17792143,9.92,'11111222,11111222,11111222' 
TABS,ioos:station:wmo:42043:1,2007-02-03T00:00:00Z,28.9818,-94.9186,4.0,6.756248959,30.01808677,8.8,'11111222,11111222,11111222' 
TABS,ioos:station:wmo:42043:1,2007-02-03T00:30:00Z,28.9818,-94.9186,4.0,6.482013576,33.10139696,8.42,'11111222,11111222,11111222' 
TABS,ioos:station:wmo:42043:1,2007-02-03T01:00:00Z,28.9818,-94.9186,4.0,6.732079916,31.82466819,8.59,'11111222,11111222,11111222' 
TABS,ioos:station:wmo:42043:1,2007-02-03T01:30:00Z,28.9818,-94.9186,4.0,7.147377141,33.93434494,9.04,'11111222,11111222,11111222' 
TABS,ioos:station:wmo:42043:1,2007-02-03T02:00:00Z,28.9818,-94.9186,4.0,7.10943739,34.62860066,9.23,'11111222,11111222,11111222' 
TABS,ioos:station:wmo:42043:1,2007-02-03T02:30:00Z,28.9818,-94.9186,4.0,7.222748784,36.04457531,9.35,'11111222,11111222,11111222' 
TABS,ioos:station:wmo:42043:1,2007-02-03T03:00:00Z,28.9818,-94.9186,4.0,7.901120174,48.74553304,9.5,'11111222,11111222,11111222' 
TABS,ioos:station:wmo:42043:1,2007-02-03T03:30:00Z,28.9818,-94.9186,4.0,7.440732491,40.47570742,9.85,'11111222,11111222,11111222' 
TABS,ioos:station:wmo:42043:1,2007-02-03T04:00:00Z,28.9818,-94.9186,4.0,7.432375125,47.61709155,9.67,'11111222,11111222,11111222' 
TABS,ioos:station:wmo:42043:1,2007-02-03T04:30:00Z,28.9818,-94.9186,4.0,7.792432226,40.10652351,10.59,'11111222,11111222,11111222' 
TABS,ioos:station:wmo:42043:1,2007-02-03T05:00:00Z,28.9818,-94.9186,4.0,7.087630069,35.64075497,9.16,'11111222,11111222,11111222' 
TABS,ioos:station:wmo:42043:1,2007-02-03T05:30:00Z,28.9818,-94.9186,4.0,7.15321606,30.86731708,9.4,'11111222,11111222,11111222' 
TABS,ioos:station:wmo:42043:1,2007-02-03T06:00:00Z,28.9818,-94.9186,4.0,7.003377756,26.45501696,9.7,'11111222,11111222,11111222' 
TABS,ioos:station:wmo:42043:1,2007-02-03T06:30:00Z,28.9818,-94.9186,4.0,6.996377634,25.20957174,9.15,'11111222,11111222,11111222' 
TABS,ioos:station:wmo:42043:1,2007-02-03T07:00:00Z,28.9818,-94.9186,4.0,7.459255995,24.6407534,10.33,'11111222,11111222,11111222' 
TABS,ioos:station:wmo:42043:1,2007-02-03T07:30:00Z,28.9818,-94.9186,4.0,7.86094778,19.93303246,11.14,'11111222,11111222,11111222' 
TABS,ioos:station:wmo:42043:1,2007-02-03T08:00:00Z,28.9818,-94.9186,4.0,7.89411173,27.37627738,10.75,'11111222,11111222,11111222' 
TABS,ioos:station:wmo:42043:1,2007-02-03T08:30:00Z,28.9818,-94.9186,4.0,8.280803101,34.91803945,11.16,'11111222,11111222,11111222' 
TABS,ioos:station:wmo:42043:1,2007-02-03T09:00:00Z,28.9818,-94.9186,4.0,8.724018569,36.75138454,11.36,'11111222,11111222,11111222' 
TABS,ioos:station:wmo:42043:1,2007-02-03T09:30:00Z,28.9818,-94.9186,4.0,8.78897605,40.43128772,11.55,'11111222,11111222,11111222' 
TABS,ioos:station:wmo:42043:1,2007-02-03T10:00:00Z,28.9818,-94.9186,4.0,8.366391098,43.98270866,10.73,'11111222,11111222,11111222' 
TABS,ioos:station:wmo:42043:1,2007-02-03T10:30:00Z,28.9818,-94.9186,4.0,8.080377466,54.51968392,9.91,'11111222,11111222,11111222' 
TABS,ioos:station:wmo:42043:1,2007-02-03T11:00:00Z,28.9818,-94.9186,4.0,7.848936234,44.79321441,10.32,'11111222,11111222,11111222' 
TABS,ioos:station:wmo:42043:1,2007-02-03T11:30:00Z,28.9818,-94.9186,4.0,7.37868552,41.9234152,9.93,'11111222,11111222,11111222' 
TABS,ioos:station:wmo:42043:1,2007-02-03T12:00:00Z,28.9818,-94.9186,4.0,6.682409745,53.76426398,9.01,'11111222,11111222,11111222' 
TABS,ioos:station:wmo:42043:1,2007-02-03T12:30:00Z,28.9818,-94.9186,4.0,7.915112128,57.69501936,9.65,'11111222,11111222,11111222' 
TABS,ioos:station:wmo:42043:1,2007-02-03T13:00:00Z,28.9818,-94.9186,4.0,7.043131406,61.5060498,9.19,'11111222,11111222,11111222' 
TABS,ioos:station:wmo:42043:1,2007-02-03T13:30:00Z,28.9818,-94.9186,4.0,5.848392942,61.50646709,7.67,'11111222,11111222,11111222' 
TABS,ioos:station:wmo:42043:1,2007-02-03T14:00:00Z,28.9818,-94.9186,4.0,5.408779899,66.23074811,7.67,'11111222,11111222,11111222' 
TABS,ioos:station:wmo:42043:1,2007-02-03T14:30:00Z,28.9818,-94.9186,4.0,5.846067054,74.01383351,7.41,'11111222,11111222,11111222' 
TABS,ioos:station:wmo:42043:1,2007-02-03T15:00:00Z,28.9818,-94.9186,4.0,6.293313912,67.87700315,9.03,'11111222,11111222,11111222' 
TABS,ioos:station:wmo:42043:1,2007-02-03T15:30:00Z,28.9818,-94.9186,4.0,6.23317736,67.05450831,7.79,'11111222,11111222,11111222' 
TABS,ioos:station:wmo:42043:1,2007-02-03T16:00:00Z,28.9818,-94.9186,4.0,6.131794191,74.19540569,7.7,'11111222,11111222,11111222' 
TABS,ioos:station:wmo:42043:1,2007-02-03T16:30:00Z,28.9818,-94.9186,4.0,5.787054518,71.87776121,7.59,'11111222,11111222,11111222' 
TABS,ioos:station:wmo:42043:1,2007-02-03T17:00:00Z,28.9818,-94.9186,4.0,5.589105474,72.82905788,7.09,'11111222,11111222,11111222' 
TABS,ioos:station:wmo:42043:1,2007-02-03T17:30:00Z,28.9818,-94.9186,4.0,4.745102739,70.0371515,6.53,'11111222,11111222,11111222' 
TABS,ioos:station:wmo:42043:1,2007-02-03T18:00:00Z,28.9818,-94.9186,4.0,3.924130477,87.37050334,5.66,'11111222,11111222,11111222' 
TABS,ioos:station:wmo:42043:1,2007-02-03T18:30:00Z,28.9818,-94.9186,4.0,3.497213176,79.62148866,5.18,'11111222,11111222,11111222' 
TABS,ioos:station:wmo:42043:1,2007-02-03T19:00:00Z,28.9818,-94.9186,4.0,4.379235093,95.37251639,5.9,'11111222,11111222,11111222' 
TABS,ioos:station:wmo:42043:1,2007-02-03T19:30:00Z,28.9818,-94.9186,4.0,3.024202374,100.8644554,4.29,'11111222,11111222,11111222' 
TABS,ioos:station:wmo:42043:1,2007-02-03T20:00:00Z,28.9818,-94.9186,4.0,2.796462051,93.89625982,4.67,'11111222,11111222,11111222' 
TABS,ioos:station:wmo:42043:1,2007-02-03T20:30:00Z,28.9818,-94.9186,4.0,2.437416665,85.5287687,4.31,'11111222,11111222,11111222' 
TABS,ioos:station:wmo:42043:1,2007-02-03T21:00:00Z,28.9818,-94.9186,4.0,1.812456896,102.4263347,3.62,'11111222,11111222,11111222' 
TABS,ioos:station:wmo:42043:1,2007-02-03T21:30:00Z,28.9818,-94.9186,4.0,1.763235662,104.1154426,3.15,'11111222,11111222,11111222' 
TABS,ioos:station:wmo:42043:1,2007-02-03T22:00:00Z,28.9818,-94.9186,4.0,2.381365155,109.1201025,3.71,'11111222,11111222,11111222' 
TABS,ioos:station:wmo:42043:1,2007-02-03T22:30:00Z,28.9818,-94.9186,4.0,2.640378761,100.033518,4.3,'11111222,11111222,11111222' 
TABS,ioos:station:wmo:42043:1,2007-02-03T23:00:00Z,28.9818,-94.9186,4.0,3.251292051,116.8806511,4.87,'11111222,11111222,11111222' 
TABS,ioos:station:wmo:42043:1,2007-02-03T23:30:00Z,28.9818,-94.9186,4.0,2.782265264,103.0876187,4.22,'11111222,11111222,11111222' 
TABS,ioos:station:wmo:42043:1,2007-02-04T00:00:00Z,28.9818,-94.9186,4.0,2.851876575,84.76878414,4.84,'11111222,11111222,11111222' 
TABS,ioos:station:wmo:42043:1,2007-02-04T00:30:00Z,28.9818,-94.9186,4.0,3.070846789,109.2023698,4.55,'11111222,11111222,11111222' 
TABS,ioos:station:wmo:42043:1,2007-02-04T01:00:00Z,28.9818,-94.9186,4.0,3.176192689,124.741129,4.72,'11111222,11111222,11111222' 
TABS,ioos:station:wmo:42043:1,2007-02-04T01:30:00Z,28.9818,-94.9186,4.0,3.203950686,109.5098475,4.65,'11111222,11111222,11111222' 
TABS,ioos:station:wmo:42043:1,2007-02-04T02:00:00Z,28.9818,-94.9186,4.0,3.12161817,112.2107836,4.84,'11111222,11111222,11111222' 
TABS,ioos:station:wmo:42043:1,2007-02-04T02:30:00Z,28.9818,-94.9186,4.0,3.392123229,128.8975503,4.84,'11111222,11111222,11111222' 
TABS,ioos:station:wmo:42043:1,2007-02-04T03:00:00Z,28.9818,-94.9186,4.0,3.784019027,127.0519304,5.03,'11111222,11111222,11111222' 
TABS,ioos:station:wmo:42043:1,2007-02-04T03:30:00Z,28.9818,-94.9186,4.0,4.010049875,133.8888994,5.58,'11111222,11111222,11111222' 
TABS,ioos:station:wmo:42043:1,2007-02-04T04:00:00Z,28.9818,-94.9186,4.0,4.15,143.130399,5.97,'11111222,11111222,11111222' 
TABS,ioos:station:wmo:42043:1,2007-02-04T04:30:00Z,28.9818,-94.9186,4.0,4.229952718,147.0615969,5.48,'11111222,11111222,11111222' 
TABS,ioos:station:wmo:42043:1,2007-02-04T05:00:00Z,28.9818,-94.9186,4.0,3.309773406,140.3942136,4.41,'11111222,11111222,11111222' 
TABS,ioos:station:wmo:42043:1,2007-02-04T05:30:00Z,28.9818,-94.9186,4.0,3.260138034,142.6031534,4.42,'11111222,11111222,11111222' 
TABS,ioos:station:wmo:42043:1,2007-02-04T06:00:00Z,28.9818,-94.9186,4.0,2.455381844,132.8547964,3.48,'11111222,11111222,11111222' 
TABS,ioos:station:wmo:42043:1,2007-02-04T06:30:00Z,28.9818,-94.9186,4.0,2.088300745,103.5708236,3.03,'11111222,11111222,11111222' 
TABS,ioos:station:wmo:42043:1,2007-02-04T07:00:00Z,28.9818,-94.9186,4.0,1.597059799,61.99046787,2.17,'11111222,11111222,11111222' 
TABS,ioos:station:wmo:42043:1,2007-02-04T07:30:00Z,28.9818,-94.9186,4.0,2.623775905,40.67204623,3.16,'11111222,11111222,11111222' 
TABS,ioos:station:wmo:42043:1,2007-02-04T08:00:00Z,28.9818,-94.9186,4.0,3.304360755,29.35747443,4.48,'11111222,11111222,11111222' 
TABS,ioos:station:wmo:42043:1,2007-02-04T08:30:00Z,28.9818,-94.9186,4.0,4.193149175,30.84630482,5.28,'11111222,11111222,11111222' 
TABS,ioos:station:wmo:42043:1,2007-02-04T09:00:00Z,28.9818,-94.9186,4.0,5.486073277,23.52744988,6.75,'11111222,11111222,11111222' 
TABS,ioos:station:wmo:42043:1,2007-02-04T09:30:00Z,28.9818,-94.9186,4.0,6.090073891,22.90184387,7.6,'11111222,11111222,11111222' 
TABS,ioos:station:wmo:42043:1,2007-02-04T10:00:00Z,28.9818,-94.9186,4.0,5.988196724,26.47919891,7.21,'11111222,11111222,11111222' 
TABS,ioos:station:wmo:42043:1,2007-02-04T10:30:00Z,28.9818,-94.9186,4.0,6.229068951,29.52783265,7.66,'11111222,11111222,11111222' 
TABS,ioos:station:wmo:42043:1,2007-02-04T11:00:00Z,28.9818,-94.9186,4.0,6.395193508,30.85591962,7.43,'11111222,11111222,11111222' 
TABS,ioos:station:wmo:42043:1,2007-02-04T11:30:00Z,28.9818,-94.9186,4.0,5.791182953,40.0966203,7.23,'11111222,11111222,11111222' 
TABS,ioos:station:wmo:42043:1,2007-02-04T12:00:00Z,28.9818,-94.9186,4.0,5.904549094,44.51937279,6.88,'11111222,11111222,11111222' 
TABS,ioos:station:wmo:42043:1,2007-02-04T12:30:00Z,28.9818,-94.9186,4.0,5.548855738,51.29148327,6.35,'11111222,11111222,11111222' 
TABS,ioos:station:wmo:42043:1,2007-02-04T13:00:00Z,28.9818,-94.9186,4.0,5.455730932,55.75616715,6.39,'11111222,11111222,11111222' 
TABS,ioos:station:wmo:42043:1,2007-02-04T13:30:00Z,28.9818,-94.9186,4.0,4.572198596,66.40613365,5.37,'11111222,11111222,11111222' 
TABS,ioos:station:wmo:42043:1,2007-02-04T14:00:00Z,28.9818,-94.9186,4.0,4.740516849,79.42449624,5.64,'11111222,11111222,11111222' 
TABS,ioos:station:wmo:42043:1,2007-02-04T14:30:00Z,28.9818,-94.9186,4.0,4.791502896,91.43550226,6.03,'11111222,11111222,11111222' 
TABS,ioos:station:wmo:42043:1,2007-02-04T15:00:00Z,28.9818,-94.9186,4.0,5.163874514,92.22007128,6.28,'11111222,11111222,11111222' 
TABS,ioos:station:wmo:42043:1,2007-02-04T15:30:00Z,28.9818,-94.9186,4.0,5.429521158,94.86044968,6.65,'11111222,11111222,11111222' 
TABS,ioos:station:wmo:42043:1,2007-02-04T16:00:00Z,28.9818,-94.9186,4.0,5.150087378,89.66582182,6.55,'11111222,11111222,11111222' 
TABS,ioos:station:wmo:42043:1,2007-02-04T16:30:00Z,28.9818,-94.9186,4.0,4.825018135,92.61376108,6.0,'11111222,11111222,11111222' 
TABS,ioos:station:wmo:42043:1,2007-02-04T17:00:00Z,28.9818,-94.9186,4.0,4.67574593,96.01582675,5.82,'11111222,11111222,11111222' 
TABS,ioos:station:wmo:42043:1,2007-02-04T17:30:00Z,28.9818,-94.9186,4.0,4.577390086,103.0043893,5.75,'11111222,11111222,11111222' 
TABS,ioos:station:wmo:42043:1,2007-02-04T18:00:00Z,28.9818,-94.9186,4.0,4.438434409,103.817469,5.64,'11111222,11111222,11111222' 
TABS,ioos:station:wmo:42043:1,2007-02-04T18:30:00Z,28.9818,-94.9186,4.0,3.959204466,96.96387316,4.99,'11111222,11111222,11111222' 